Find Starlink 35008

NORAD ID: 65408 Int'l Des: 2025-192 Owner: SPXS Country: US Constellation: starlink operational
LEOCIRCULAR

Aktuelle Ansicht

3D-Globus wird geladen...

Über Starlink 35008

Beschreibung wird geladen...

Nächste Überflüge

Passes for default location (London). Set your location on the main map for personalized predictions.

Höhenverlauf

Loading altitude history...

Zweizeiliger Elementsatz

1 65408U 25192E 26150.59120692 .00025257 00000-0 86197-3 0 9995
2 65408 53.1568 211.9348 0001170 65.2329 294.8793 15.30200675 41924
Epoch: 30. Mai 2026 • Age: 22 hours

Aktueller Status

Höhe 481.8 km
Geschwindigkeit 7.62 km/s
Subsatellitenpunkt -23.23°S, 119.96°E
Startdatum 31. Aug. 2025
Alter 0.7 years
Typ internet

Technische Details

Klassifizierung Payload
Masse 575.00 kg
Trockenmasse 530.00 kg
Gesamtmasse 575.00 kg
Länge 0.30 m
Durchmesser 4.10 m
Spannweite 29.00 m
Form Box + pan
Hersteller SPXS
Bus-Typ Starlink V2MO
Phasenstatus In Orbit
Besitzer/Staat SPXS/US

Most Searched